Temperature
22 22 21 21 21 20 20 19 19 19 19 19 18 18 18 17 17 17 17 17 16 16 16 16 16 16 16 16 16 16 15 15 15 14 14 14 13 13 13 13 12 12 12
22 22 21 21 20 20 20 19 19 19 19 19 18 18 18 17 17 17 17 16 16 16 16 16 15 15 15 15 15 15 15 15 15 14 14 13 13 13 13 13 12 12 12
22 22 21 21 20 20 20 20 20 19 19 19 18 18 18 17 17 17 17 16 16 16 16 15 15 15 15 15 15 15 15 15 14 14 14 13 13 13 12 12 12 12 12
22 21 21 21 21 20 20 20 19 19 19 19 18 18 18 17 17 17 17 16 16 16 16 15 15 15 15 15 15 15 15 14 14 14 14 13 13 13 12 12 12 12 12
21 21 21 21 21 20 20 20 19 19 19 19 18 18 18 17 17 17 17 16 16 16 15 15 15 15 15 15 15 15 14 14 14 14 14 13 13 12 12 12 12 11 11
22 21 21 21 21 20 20 20 19 19 19 19 18 18 17 17 17 17 17 16 16 16 15 15 15 15 15 15 15 15 15 14 14 14 14 13 13 13 12 12 12 12 11
22 21 21 20 20 20 20 20 19 19 19 18 18 18 17 17 17 17 17 16 15 15 15 15 15 15 15 14 15 15 14 14 14 14 14 13 13 13 12 12 12 12 12
21 21 20 20 20 20 19 19 19 19 18 18 18 18 18 17 17 17 16 16 15 15 15 15 15 15 15 14 14 14 14 14 14 14 13 13 13 13 13 12 12 12 11
21 20 20 20 20 20 19 19 19 18 18 18 18 17 17 17 17 17 16 16 15 15 15 15 15 15 15 14 14 14 14 14 14 14 14 13 13 13 12 12 12 11 11
20 20 20 19 19 19 19 19 18 18 18 18 17 17 17 17 17 16 16 16 15 15 15 15 15 15 15 14 14 14 14 14 13 13 13 13 13 13 12 12 12 12 12
20 19 19 19 19 19 18 18 18 18 18 17 17 17 17 17 16 16 16 16 15 15 15 15 15 14 14 14 14 14 14 13 13 13 13 13 12 12 12 12 12 12 12
19 19 19 19 18 18 18 18 17 17 17 17 16 16 16 16 16 16 16 16 15 15 14 14 14 14 14 14 14 14 13 13 13 13 13 13 12 12 12 12 12 12 11
19 19 19 18 18 17 17 17 17 17 17 16 16 16 16 15 15 16 15 15 15 15 14 14 14 14 14 13 13 13 13 13 13 13 13 12 12 12 12 11 11 11 11
18 18 18 17 17 17 17 17 17 16 16 16 16 16 15 15 15 15 15 15 14 14 14 14 14 13 13 13 13 13 13 12 12 12 12 12 12 12 11 11 11 11 11
18 18 17 17 17 16 16 16 16 16 16 16 15 15 15 15 15 15 15 15 14 14 14 13 13 13 13 13 12 12 12 12 12 12 12 12 12 12 11 11 11 11 11
17 17 17 16 16 16 16 16 16 15 15 15 15 15 14 15 14 14 14 14 14 14 13 13 13 13 13 13 13 12 12 12 12 12 12 11 11 11 11 11 11 11 11
16 16 16 16 16 16 15 15 15 15 15 15 15 14 14 14 14 14 14 14 13 13 13 13 13 13 13 13 13 12 12 12 12 11 11 11 11 11 11 11 11 11 11
15 15 15 15 15 15 15 15 15 15 15 14 14 14 14 14 14 13 13 13 13 12 12 12 12 12 12 12 12 12 12 12 12 11 11 11 11 11 11 11 11 11 11
15 15 15 14 14 14 14 15 14 14 14 14 14 13 14 13 13 13 13 12 12 12 12 12 12 12 12 12 12 12 12 11 11 11 11 11 11 11 11 11 11 10 10
14 14 14 14 14 14 14 14 14 14 14 14 13 13 13 13 12 12 12 12 12 12 12 12 12 12 12 11 11 11 11 11 11 11 11 11 11 11 11 10 10 10 10
14 14 13 13 13 13 13 13 13 13 13 13 13 13 13 12 12 12 12 12 12 12 11 11 11 11 11 11 11 11 11 11 11 11 11 10 10 10 10 10 10 10 10
13 13 13 13 13 13 13 13 13 13 13 13 13 12 12 12 12 11 11 11 11 11 11 11 11 11 11 11 11 11 11 10 10 10 10 10 10 10 10 10 10 10 9
12 12 12 12 12 12 12 12 12 12 12 12 12 12 11 11 11 11 11 11 11 11 11 11 10 10 10 10 10 10 10 10 10 10 10 10 10 10 10 9 9 9 9
12 12 12 12 11 12 12 12 12 12 12 12 11 11 11 11 11 11 10 10 10 10 10 10 10 10 10 10 10 10 10 10 10 10 9 9 9 9 9 9 9 9 9
11 11 11 11 11 11 11 11 11 11 11 11 11 11 11 10 10 10 10 10 10 10 10 10 9 9 9 9 9 9 9 9 9 9 9 9 9 9 9 9 9 8 8
11 11 11 11 11 11 11 11 11 10 11 11 10 10 10 10 10 10 10 9 9 9 9 9 9 9 9 9 9 9 9 9 9 9 8 8 8 8 8 8 8 8 8
Wind_Speed
11 10 9 9 9 8 8 7 6 5 5 6 5 5 5 5 4 3 3 2 3 2 2 2 3 3 3 2 2 2 2 2 2 2 2 3 4 4 5 5 5 5 7
10 9 9 9 8 8 8 7 7 6 6 6 6 6 5 5 4 4 3 3 3 3 3 3 3 2 2 2 2 2 2 2 2 3 3 3 3 4 4 3 4 5 6
9 9 9 9 9 8 8 7 7 6 6 6 6 6 6 5 5 5 4 4 3 3 3 3 3 2 2 2 2 2 2 2 3 4 4 3 3 4 5 4 4 3 5
9 9 9 9 8 8 7 7 7 6 6 6 6 6 6 6 5 5 5 5 4 3 3 3 3 3 3 3 3 3 3 3 3 4 4 4 4 5 4 4 4 3 3
9 9 9 8 7 7 6 6 6 6 6 6 6 6 6 6 5 5 5 5 5 4 4 4 3 2 1 2 2 3 4 4 4 4 5 4 5 5 5 5 4 4 4
9 8 7 7 7 7 7 6 6 6 5 5 6 6 6 5 4 3 5 5 5 5 4 4 4 5 5 4 1 1 1 4 4 4 5 5 6 6 5 5 5 5 4
8 7 7 7 7 6 6 6 6 6 5 5 6 6 6 4 6 6 5 5 5 4 4 4 4 3 5 5 6 7 4 3 4 5 5 5 6 7 7 8 6 5 3
7 7 7 7 6 6 6 5 5 5 6 6 6 6 6 5 7 7 6 7 6 5 5 5 5 4 4 4 5 6 5 5 6 6 5 5 4 5 7 7 6 6 4
6 6 6 6 6 6 6 6 6 6 6 6 6 6 6 5 7 8 7 6 6 6 6 5 5 5 3 3 5 6 5 5 4 4 3 2 3 5 6 6 7 7 6
5 5 5 6 6 6 6 6 6 5 6 6 5 6 6 5 7 8 9 6 6 6 5 5 4 4 4 4 6 6 6 5 4 5 5 6 7 9 10 9 8 7 6
4 4 5 5 6 6 6 5 5 5 5 6 6 6 6 6 8 9 8 6 5 6 5 5 4 6 6 6 6 5 5 4 5 5 6 7 7 7 9 9 8 7 7
3 3 4 4 4 4 5 5 5 5 6 6 6 6 6 6 6 8 9 8 5 5 5 4 3 8 7 6 6 4 4 5 5 5 5 6 6 7 7 8 9 8 6
3 3 3 4 4 4 5 5 5 5 6 6 6 6 6 5 6 9 11 10 7 5 4 0 2 6 7 7 7 7 7 6 6 6 6 6 6 6 6 7 9 9 9
3 3 3 4 5 5 4 5 5 5 6 6 6 6 5 5 5 5 6 7 8 7 5 4 7 8 7 5 6 7 7 6 6 6 6 6 6 6 7 7 8 8 8
3 3 3 4 4 4 4 4 6 5 5 5 5 5 5 6 4 3 4 5 6 6 5 5 5 5 6 6 6 6 7 7 7 7 7 6 6 7 7 7 7 8 8
3 3 3 3 4 5 5 4 3 4 4 4 4 5 4 3 4 5 5 4 4 5 6 7 6 6 6 6 6 6 7 7 7 7 7 7 7 7 7 7 7 8 9
3 3 3 3 4 5 5 5 5 4 4 5 5 5 5 4 5 6 7 6 5 7 8 7 7 7 7 6 7 7 7 6 6 7 7 7 7 7 8 8 8 9 9
4 3 4 4 4 4 5 5 5 6 5 4 5 7 7 7 6 7 7 6 5 7 7 7 7 6 6 6 6 7 6 6 6 7 7 7 8 8 8 8 8 9 9
3 3 3 3 4 4 5 5 5 6 5 4 4 5 7 7 7 6 8 6 6 6 7 7 6 6 5 6 5 6 6 6 7 7 7 7 7 7 8 8 9 9 10
3 3 3 3 4 5 5 5 5 5 5 5 5 3 4 4 4 5 6 6 6 6 6 6 6 6 6 6 6 6 7 7 7 7 7 7 7 7 8 9 9 8 8
3 3 4 4 4 5 5 5 5 5 5 4 4 2 3 5 5 5 6 6 6 6 5 6 6 6 6 6 6 6 7 6 6 6 6 7 7 8 8 8 9 9 8
4 3 4 4 4 4 4 4 4 4 4 4 3 2 5 5 4 4 5 5 6 5 6 6 6 5 5 6 6 6 6 7 6 6 7 7 7 7 8 8 8 8 7
4 4 4 4 4 3 4 4 4 3 4 4 3 2 3 3 3 3 3 4 4 4 4 4 4 4 5 5 5 5 6 6 6 6 7 7 7 7 7 8 9 9 8
4 4 4 3 4 4 4 3 3 3 3 3 2 2 2 2 2 3 3 3 3 3 3 3 4 5 5 4 4 4 4 4 6 6 7 7 7 7 7 7 8 8 8
3 3 3 3 3 3 3 3 3 3 3 3 3 3 3 3 3 3 3 2 3 3 3 3 3 4 4 4 3 3 3 3 4 5 6 6 7 7 6 7 6 7 7
2 2 2 3 3 3 3 3 3 3 3 3 3 3 3 3 3 3 3 2 2 3 3 3 3 3 3 3 2 3 2 2 3 5 5 5 5 5 5 6 7 7 7
Wind_Direction
197 198 199 197 198 200 204 206 206 209 208 209 209 210 211 211 211 219 232 221 239 247 253 256 268 289 280 262 235 234 234 227 194 152 121 120 126 121 117 115 119 115 103
192 192 196 198 198 201 202 204 204 205 208 208 209 212 214 209 209 215 223 218 226 235 244 248 256 256 254 263 243 227 217 206 198 165 147 138 136 137 129 132 123 116 112
187 191 193 195 195 201 202 202 203 203 205 204 208 213 213 210 211 216 220 221 224 230 241 240 240 239 237 226 225 216 202 184 179 174 162 146 146 148 146 144 131 127 127
188 191 192 194 193 195 198 201 200 200 201 201 207 213 213 212 215 217 217 218 219 222 228 235 239 234 227 216 204 196 185 171 168 177 160 162 159 160 172 166 161 160 158
189 191 190 190 190 189 191 195 196 197 198 201 207 209 210 211 216 217 220 213 216 221 220 220 218 210 296 247 233 190 182 183 178 180 178 179 175 174 188 189 179 167 166
188 191 186 185 187 188 190 193 193 198 203 200 207 210 212 215 153 195 244 225 222 226 224 219 207 193 191 197 221 214 224 200 196 198 200 197 193 192 191 193 186 186 189
186 187 183 183 184 186 190 188 192 197 200 203 211 212 212 197 159 183 229 236 230 230 229 229 232 202 196 205 189 191 204 218 230 234 221 214 202 195 194 197 201 206 208
184 185 184 183 181 181 181 184 195 200 201 205 211 213 213 196 170 188 209 223 227 228 230 230 229 219 214 220 208 202 207 205 216 227 233 228 217 194 197 205 196 193 197
180 185 186 186 184 182 186 189 196 201 207 213 213 213 214 199 175 187 211 221 221 224 227 228 228 224 190 225 219 212 210 207 199 198 205 187 139 168 187 195 193 198 198
179 182 184 193 193 194 195 196 201 203 210 218 212 214 213 205 174 188 213 226 222 225 221 218 208 225 184 203 220 218 216 217 205 181 179 186 192 188 193 207 205 210 208
175 178 183 195 199 201 199 199 204 206 207 218 213 213 213 207 180 185 208 228 230 233 232 228 207 167 181 206 236 230 223 229 214 203 200 198 196 197 200 207 220 224 224
169 179 187 197 212 205 202 202 203 208 212 217 215 220 216 204 191 187 196 222 255 235 242 240 182 150 180 205 222 219 220 230 224 216 214 210 207 205 202 205 211 223 235
172 182 202 210 214 213 208 207 210 213 224 226 223 223 221 210 190 181 194 207 226 232 235 160 143 179 194 204 207 207 213 222 223 221 220 220 218 212 204 200 206 215 224
194 193 206 219 219 211 214 216 220 222 228 232 232 231 226 217 213 199 203 205 209 222 227 186 180 196 213 222 205 204 216 221 224 228 229 227 218 209 213 213 213 210 217
218 219 223 232 228 218 220 232 230 232 232 233 238 237 233 228 213 199 213 218 223 221 214 218 222 217 218 220 220 218 216 215 222 229 232 228 222 218 218 218 219 218 222
233 233 238 243 237 224 219 231 239 237 207 217 245 258 242 227 183 190 213 229 224 200 210 224 227 230 229 228 228 223 218 220 223 224 228 229 228 225 222 220 217 223 227
259 253 250 247 245 231 224 231 237 229 213 209 212 220 227 211 188 195 206 207 196 189 215 228 229 231 233 233 232 234 232 225 225 226 226 228 229 229 227 224 222 227 231
274 270 261 254 253 248 240 239 239 239 228 228 216 201 200 199 191 192 193 185 196 205 229 235 235 234 235 237 238 239 237 231 227 230 229 229 228 227 229 228 227 229 232
279 280 282 283 274 263 255 249 246 246 243 238 226 194 188 188 182 183 183 209 218 220 230 239 241 240 239 237 239 240 240 237 233 232 233 231 230 229 231 232 233 228 231
263 263 263 266 265 262 256 253 250 246 243 241 241 229 179 184 202 197 207 224 231 231 232 237 240 242 242 240 236 236 238 238 236 236 235 233 230 231 235 238 238 234 229
256 237 223 247 253 254 254 256 255 252 250 247 247 221 192 213 220 218 219 225 232 235 238 242 241 239 238 239 239 239 242 243 240 239 239 238 237 236 238 239 240 241 238
257 252 246 248 254 257 262 261 258 254 255 259 251 199 181 224 226 221 224 227 232 238 239 239 242 242 244 245 243 244 243 243 244 245 247 246 245 243 242 240 239 237 237
248 249 254 256 258 257 257 258 259 261 263 263 262 240 211 231 239 240 241 241 235 236 236 234 241 245 247 249 251 249 249 250 252 252 250 249 247 244 241 239 237 235 231
246 244 248 253 256 256 258 258 259 265 270 273 269 258 244 244 257 264 262 257 251 247 244 244 249 257 258 257 256 257 269 281 270 258 254 254 250 248 244 239 236 234 231
253 249 248 250 253 259 264 266 266 265 266 266 264 262 263 262 262 267 269 263 259 263 259 255 258 258 260 256 264 281 348 332 294 279 261 254 250 247 246 243 239 236 232
270 267 267 269 270 270 269 270 270 265 259 260 263 264 264 264 264 263 261 259 257 261 265 261 264 266 274 264 276 0 3 335 302 291 271 251 246 244 245 245 244 239 236
Height
1523 1525 1527 1528 1529 1531 1532 1533 1534 1534 1535 1535 1536 1536 1536 1536 1535 1534 1534 1533 1533 1533 1532 1532 1531 1531 1531 1532 1531 1531 1531 1532 1532 1533 1533 1533 1533 1534 1534 1534 1535 1535 1534
1520 1522 1524 1525 1526 1528 1529 1530 1531 1531 1532 1532 1533 1533 1534 1534 1533 1533 1532 1532 1531 1531 1530 1530 1530 1530 1529 1529 1529 1530 1530 1530 1531 1531 1531 1532 1532 1532 1533 1533 1534 1534 1534
1518 1519 1521 1522 1523 1525 1526 1527 1528 1528 1529 1530 1530 1531 1531 1531 1531 1531 1530 1530 1529 1529 1528 1528 1528 1527 1527 1527 1527 1528 1528 1528 1529 1529 1530 1530 1531 1531 1532 1532 1533 1533 1534
1515 1516 1518 1519 1520 1522 1523 1523 1525 1526 1526 1527 1527 1528 1528 1528 1528 1528 1528 1527 1527 1526 1526 1526 1526 1526 1525 1525 1525 1525 1526 1526 1527 1528 1528 1529 1529 1530 1531 1532 1532 1533 1533
1512 1514 1515 1516 1518 1519 1519 1520 1522 1522 1523 1524 1524 1525 1525 1525 1526 1526 1525 1525 1525 1525 1524 1524 1524 1523 1523 1523 1524 1524 1524 1524 1525 1526 1526 1527 1528 1528 1529 1531 1532 1532 1532
1509 1511 1512 1514 1515 1516 1517 1518 1519 1519 1520 1521 1521 1522 1522 1523 1522 1522 1523 1523 1522 1522 1522 1522 1522 1521 1521 1521 1521 1521 1522 1522 1523 1524 1524 1525 1525 1526 1527 1528 1530 1531 1531
1506 1508 1509 1511 1512 1513 1514 1515 1516 1516 1517 1518 1519 1519 1519 1519 1519 1519 1519 1520 1520 1520 1520 1520 1521 1520 1519 1519 1519 1519 1519 1520 1520 1521 1522 1522 1523 1523 1524 1526 1527 1528 1529
1503 1505 1506 1507 1509 1510 1511 1512 1513 1514 1515 1515 1516 1516 1516 1516 1516 1516 1517 1517 1517 1517 1517 1517 1517 1517 1517 1517 1517 1517 1517 1517 1517 1518 1518 1519 1520 1521 1522 1523 1524 1525 1526
1500 1501 1503 1504 1506 1507 1507 1508 1510 1510 1511 1512 1512 1512 1512 1512 1513 1513 1513 1514 1514 1514 1514 1514 1514 1514 1514 1514 1514 1514 1514 1514 1514 1514 1515 1515 1516 1518 1519 1520 1521 1523 1523
1497 1498 1499 1501 1502 1503 1504 1504 1506 1506 1507 1508 1508 1509 1509 1509 1509 1509 1509 1510 1511 1511 1511 1511 1510 1510 1510 1511 1511 1511 1511 1512 1512 1512 1512 1512 1513 1514 1515 1517 1518 1519 1520
1493 1495 1496 1498 1499 1500 1500 1501 1502 1502 1503 1504 1504 1505 1505 1505 1505 1505 1506 1506 1507 1508 1508 1508 1507 1507 1507 1507 1508 1508 1508 1509 1509 1509 1509 1510 1510 1511 1511 1512 1514 1515 1517
1491 1492 1494 1495 1496 1497 1496 1496 1497 1498 1499 1499 1500 1501 1501 1501 1501 1501 1502 1502 1503 1503 1504 1504 1504 1503 1503 1503 1503 1504 1504 1505 1505 1506 1506 1507 1507 1507 1508 1509 1509 1510 1512
1488 1489 1490 1491 1492 1493 1493 1493 1494 1494 1495 1496 1496 1497 1497 1497 1497 1497 1497 1498 1498 1498 1499 1499 1500 1499 1499 1499 1499 1500 1500 1500 1501 1502 1502 1502 1503 1503 1504 1505 1505 1506 1507
1486 1486 1486 1488 1489 1489 1488 1490 1490 1490 1491 1492 1492 1492 1493 1493 1493 1492 1493 1493 1494 1494 1495 1495 1495 1495 1495 1495 1495 1495 1496 1496 1496 1497 1497 1498 1499 1499 1500 1501 1502 1502 1503
1483 1483 1484 1484 1485 1485 1485 1485 1486 1486 1486 1486 1487 1488 1488 1488 1488 1488 1488 1488 1489 1490 1490 1490 1491 1491 1491 1491 1492 1492 1492 1492 1492 1492 1493 1493 1494 1494 1495 1496 1497 1497 1498
1480 1480 1481 1481 1481 1481 1480 1480 1481 1481 1481 1481 1482 1482 1482 1483 1483 1484 1484 1484 1485 1485 1486 1486 1486 1487 1487 1487 1487 1487 1487 1487 1487 1488 1488 1488 1488 1489 1490 1491 1491 1492 1493
1476 1477 1477 1477 1477 1476 1477 1477 1477 1477 1476 1476 1476 1477 1477 1478 1478 1479 1479 1480 1480 1480 1481 1481 1481 1482 1482 1483 1483 1483 1483 1483 1483 1483 1483 1483 1483 1484 1484 1485 1485 1486 1487
1473 1473 1473 1472 1473 1472 1472 1473 1473 1473 1472 1471 1471 1472 1472 1473 1474 1474 1475 1475 1475 1475 1475 1476 1477 1477 1477 1478 1478 1478 1478 1478 1478 1477 1478 1478 1478 1478 1479 1479 1480 1480 1481
1470 1469 1469 1469 1469 1469 1469 1469 1469 1469 1468 1468 1468 1467 1468 1468 1469 1469 1469 1470 1470 1470 1471 1472 1472 1473 1473 1473 1473 1473 1474 1473 1473 1472 1472 1473 1473 1473 1473 1474 1474 1475 1475
1466 1465 1465 1465 1466 1466 1466 1465 1465 1465 1464 1464 1464 1464 1463 1464 1464 1464 1464 1465 1466 1466 1467 1467 1468 1468 1468 1468 1468 1468 1469 1469 1468 1467 1467 1467 1467 1468 1468 1468 1469 1469 1469
1463 1463 1462 1463 1463 1463 1462 1462 1461 1461 1460 1460 1460 1460 1459 1460 1460 1460 1460 1460 1460 1461 1462 1462 1462 1462 1463 1463 1462 1462 1463 1463 1462 1462 1462 1462 1462 1462 1462 1463 1463 1464 1464
1459 1459 1459 1459 1459 1459 1459 1458 1458 1457 1456 1456 1456 1456 1455 1456 1456 1455 1455 1455 1455 1456 1456 1457 1458 1458 1457 1458 1457 1457 1457 1457 1456 1456 1456 1456 1456 1456 1457 1457 1457 1458 1458
1456 1456 1456 1455 1456 1456 1455 1455 1454 1454 1453 1453 1453 1452 1452 1451 1452 1451 1451 1451 1451 1451 1452 1452 1452 1452 1452 1452 1452 1452 1451 1451 1451 1450 1450 1450 1450 1451 1451 1451 1452 1452 1452
1453 1453 1453 1452 1453 1453 1452 1452 1451 1451 1451 1450 1449 1449 1448 1448 1448 1448 1448 1448 1447 1447 1447 1447 1447 1447 1447 1447 1447 1447 1446 1446 1445 1445 1445 1445 1445 1445 1445 1445 1446 1446 1447
1450 1450 1450 1449 1449 1449 1449 1449 1448 1448 1447 1447 1446 1446 1446 1445 1445 1445 1445 1444 1444 1443 1443 1443 1442 1442 1442 1442 1442 1441 1441 1440 1440 1439 1439 1439 1439 1439 1439 1440 1441 1441 1442
1447 1447 1447 1447 1446 1446 1446 1445 1445 1445 1444 1444 1444 1443 1443 1443 1443 1442 1441 1441 1440 1440 1439 1439 1438 1438 1438 1438 1437 1436 1436 1435 1435 1434 1434 1434 1434 1434 1435 1435 1436 1437 1438